{"data":{"norad_id":54194,"intl_designator":"2022-141AP","name":"STARLINK-5271","alt_names":[],"object_type":"PAYLOAD","status":"ACTIVE","operator":null,"country":"US","launch_date":"2022-10-28","launch_site_code":"AFWTR","launch_vehicle":null,"mission":null,"orbit_class":"UNKNOWN","rcs_meters":null,"size_class":null,"mass_kg":null,"dimensions":null,"purposes":["comms"],"wikipedia_slug":null,"has_3d_model":false,"image_url":null,"decayed_at":null,"tle_current":{"epoch":"2026-05-24T21:36:36.542016Z","epoch_age_seconds":87247,"freshness":"FRESH","line1":"1 54194U 22141AP  26144.90042294  .00000174  00000+0  29031-4 0  9990","line2":"2 54194  53.2135  11.9604 0001541  95.7274 264.3894 15.08839859197504","mean_motion":15.08839859,"eccentricity":0.0001541,"inclination_deg":53.2135,"raan_deg":11.9604,"arg_perigee_deg":95.7274,"mean_anomaly_deg":264.3894,"bstar":2.9031e-5,"rev_number":19750,"period_min":95.437563596337,"perigee_km":538.67777451037,"apogee_km":540.80986537908,"semimajor_km":6917.8808199447,"source":"CELESTRAK","updated_at":"2026-05-25T13:38:17.684046Z"}}}